Flag for Canada Weather past 2 weeks in Gatineau, Quebec, Canada

Now
45 °F

Passing clouds.


Feels Like: 38 °F
Forecast: 38 / 54 °F
Wind: 14 mph from Northeast

Location: Ottawa Int'L. Ont.

Current Time: Oct 22, 2014 at 2:58:00 AM

Latest Report: Oct 22, 2014 at 2:00 AM


Visibility: 15 mi

Pressure: 30.19 "Hg

Humidity: 61%

Dew point: 32 °F

Location of GatineauLocation

Historic Weather in Gatineau — Graph

°F

Gatineau temperature yesterday

Maximum temperature yesterday: 45 °F (at 3:00 PM)
Minimum temperature yesterday: 39 °F (at 12:00 AM)
Average temperature yesterday: 42 °F

Past Weeks' High & Low Weather Summary

 TemperatureHumidityPressure
High77 °F (Oct 14, 1:00 PM)100% (Oct 7, 11:00 AM)30.30 "Hg (Oct 7, 11:00 AM)
Low28 °F (Oct 20, 3:00 AM)41% (Oct 12, 2:00 PM)29.44 "Hg (Oct 18, 4:00 AM)
Average51 °F82%29.89 "Hg
* Reported Oct 7 2:00 AM — Oct 22 2:00 AM, Gatineau, Weather by CustomWeather, © 2014

Note: Actual official high and low records may vary slightly from our data, if they occured in-between our weather recording intervals... More about our weather records

Advertising

Gatineau weather history for previous 24 hours

 ConditionsComfort  
Time TempWeatherWind HumidityBarometerVisibility
2:00 AM
Oct 22
45 °FPassing clouds.14 mph61%30.19 "Hg15 mi
1:00 AM45 °FPassing clouds.12 mph61%30.20 "Hg15 mi
12:00 AM45 °FOvercast.9 mph61%30.20 "Hg15 mi
11:00 PM
Oct 21
45 °FOvercast.9 mph61%30.19 "Hg15 mi
10:00 PM45 °FOvercast.10 mph61%30.18 "Hg15 mi
9:00 PM45 °FOvercast.13 mph66%30.16 "Hg15 mi
8:00 PM45 °FOvercast.13 mph71%30.14 "Hg15 mi
7:00 PM45 °FOvercast.12 mph76%30.12 "Hg15 mi
6:00 PM45 °FOvercast.12 mph76%30.10 "Hg15 mi
5:00 PM45 °FOvercast.13 mph81%30.08 "Hg15 mi
4:00 PM45 °FOvercast.15 mph76%30.06 "Hg15 mi
3:00 PM45 °FMostly cloudy.13 mph81%30.04 "Hg15 mi
2:00 PM43 °FMore clouds than sun.15 mph87%30.03 "Hg15 mi
1:00 PM43 °FLow clouds.17 mph87%30.02 "Hg15 mi
12:00 PM41 °FLight rain. Low clouds.16 mph100%30.02 "Hg10 mi
11:00 AM41 °FLight rain. Fog.15 mph93%30.01 "Hg6 mi
10:00 AM41 °FLight rain. Fog.18 mph93%29.99 "Hg5 mi
9:00 AM39 °FLight rain. Low clouds.15 mph100%29.98 "Hg10 mi
8:00 AM39 °FLight rain. Fog.16 mph100%29.96 "Hg6 mi
7:51 AM39 °FLight rain. Fog.17 mph100%29.96 "Hg6 mi
7:00 AM41 °FLight rain. Fog.14 mph93%29.93 "Hg6 mi
6:00 AM41 °FLight rain. Mostly cloudy.14 mph93%29.92 "Hg8 mi
5:00 AM41 °FLight rain. Mostly cloudy.15 mph93%29.90 "Hg10 mi
4:00 AM39 °FLight rain. Fog.14 mph100%29.90 "Hg6 mi
3:00 AM39 °FLight rain. Low clouds.12 mph100%29.90 "Hg7 mi
2:00 AM41 °FLight rain. Mostly cloudy.10 mph93%29.90 "Hg8 mi
Weather by CustomWeather, © 2014

See weather overviewHow to use our weather pages